Date,TemperatureHighF,TemperatureAvgF,TemperatureLowF,DewpointHighF,DewpointAvgF,DewpointLowF,HumidityHigh,HumidityAvg,HumidityLow,PressureMaxIn,PressureMinIn,WindSpeedMaxMPH,WindSpeedAvgMPH,GustSpeedMaxMPH,PrecipitationSumIn
2013-9-1,96,86,78,76,72,68,81,65,48,29.94,29.81,4,0,5,0.00
2013-9-2,94,82,72,75,66,59,92,62,35,30.05,29.93,2,0,3,0.00
2013-9-3,97,80,65,70,63,58,96,61,32,30.09,29.99,2,0,4,0.00
2013-9-4,100,82,64,71,65,61,93,61,33,30.15,30.05,2,0,4,0.00
2013-9-5,103,84,69,69,65,62,87,56,32,30.19,30.07,3,0,4,0.00
2013-9-6,102,84,71,70,66,62,76,56,32,30.15,30.00,3,0,4,0.00
2013-9-7,107,86,71,71,67,64,82,55,30,30.05,29.93,2,0,4,0.00
2013-9-8,104,88,74,72,68,64,85,55,29,29.99,29.89,5,0,5,0.00
2013-9-9,102,86,70,71,66,63,84,56,33,30.01,29.93,7,0,8,0.00
2013-9-10,101,85,75,71,66,61,76,55,32,30.13,29.99,8,0,8,0.05
2013-9-11,102,85,70,72,67,62,90,59,32,30.17,30.04,2,0,3,0.00
2013-9-12,102,84,72,74,70,67,90,65,35,30.13,30.01,4,0,4,0.00
2013-9-13,91,79,70,72,61,51,89,58,33,30.11,29.99,4,0,5,0.00
2013-9-14,93,77,63,63,59,54,77,55,37,30.08,29.96,4,0,5,0.00
2013-9-15,92,80,68,70,62,54,69,55,39,30.05,29.98,6,0,6,0.00
2013-9-16,89,78,72,76,70,67,96,78,53,30.22,30.04,5,0,7,0.06
2013-9-17,82,74,69,73,70,68,98,86,65,30.15,29.98,3,0,4,0.05
2013-9-18,97,82,71,75,71,68,92,71,46,30.01,29.89,5,0,7,0.00
2013-9-19,97,80,69,78,72,69,99,81,44,30.01,29.86,11,0,11,0.67
2013-9-20,71,68,61,70,64,57,99,86,62,30.03,29.95,2,0,4,0.28
2013-9-21,85,72,51,60,55,40,99,60,34,30.09,29.92,19,0,19,16.64
2013-9-22,89,70,54,62,53,49,96,61,27,29.97,29.83,2,0,4,0.00
2013-9-23,87,71,57,60,56,53,87,60,35,29.90,29.77,4,0,7,0.00
2013-9-24,86,73,64,61,58,56,81,61,39,29.91,29.84,8,0,10,0.00
2013-9-25,92,73,58,66,60,57,99,67,36,29.91,29.79,2,0,2,0.00
2013-9-26,98,79,64,66,62,59,88,59,33,29.90,29.80,6,0,7,0.00
2013-9-27,96,80,65,67,62,58,92,58,34,29.97,29.83,7,0,10,0.00
2013-9-28,81,69,56,70,64,56,99,85,63,30.08,29.84,6,0,8,0.97
2013-9-29,80,63,52,67,55,50,99,78,40,30.09,29.93,1,0,2,0.00
2013-9-30,90,70,52,64,58,51,99,71,35,29.94,29.82,2,0,7,0.00